Weather History for Seretse Khama, Botswana

Change the Weather History Date:

Tuesday, May 28, 2013

  Actual Average Record
Temperature  
Mean Temperature 65 °F -  
Max Temperature 84 °F 70 °F 84 °F (2013)
Min Temperature 46 °F 40 °F 32 °F (2006)
Growing Degree Days 15 (Base 50)    
Moisture  
Dew Point 27 °F    
Average Humidity 28    
Maximum Humidity 53    
Minimum Humidity 11    
Precipitation  
Precipitation 0.00 in - - ()
Sea Level Pressure  
Sea Level Pressure 30.06 in    
Wind  
Wind Speed 4 mph ()    
Max Wind Speed 13 mph    
Max Gust Speed 25 mph    
Averages and records for this station are not official NWS values.
T = Trace of Precipitation, MM = Missing Value Source: Averaged Metar Reports

Daily Weather History Graph

Daily Weather History Graph

Search for Another Location

Airport:

Trip Planner

Search our weather history database for the weather conditions in past years. The results will help you decide how hot, cold, wet, or windy it might be!

Date:

Astronomy

May. 28, 2013 Rise Set
Actual Time 6:51 AM CAT 5:36 PM CAT
Civil Twilight 6:26 AM CAT 6:00 PM CAT
Nautical Twilight 5:58 AM CAT 6:28 PM CAT
Astronomical Twilight 5:30 AM CAT 6:56 PM CAT
Moon 9:20 PM CAT (5/28) 9:53 AM CAT (5/28)
Length of Visible Light 11h 34m
Length of Day
10h 45m
Waning Gibbous, 85% of the Moon is Illuminated
May 28
Waning Gibbous
May 31
Last Quarter
Jun 8
New
Jun 16
First Quarter
Jun 23
Full

Hourly Weather History & Observations

Time (CAT) Temp. Windchill Dew Point Humidity Pressure Visibility Wind Dir Wind Speed Gust Speed Precip Events Conditions
12:00 AM 57.2 °F - 26.6 °F 31% 30.06 in - West 5.8 mph - N/A   Clear
1:00 AM 55.4 °F - 26.6 °F 33% 30.06 in - WSW 5.8 mph - N/A   Clear
2:00 AM 57.2 °F - 26.6 °F 31% 30.06 in - SW 4.6 mph - N/A   Clear
3:00 AM 53.6 °F - 28.4 °F 38% 30.04 in - SW 2.3 mph - N/A   Clear
4:00 AM 48.2 °F - 28.4 °F 46% 30.33 in - Calm Calm - N/A   Clear
5:00 AM 46.4 °F - 30.2 °F 53% 30.06 in - Variable 2.3 mph - N/A   Clear
6:00 AM 46.4 °F 45.2 °F 30.2 °F 53% 30.06 in - NNW 3.5 mph - N/A   Clear
7:00 AM 48.2 °F - 30.2 °F 50% 30.09 in - Variable 2.3 mph - N/A   Clear
8:00 AM 53.6 °F - 30.2 °F 41% 30.09 in - Variable 1.2 mph - N/A   Clear
9:00 AM 64.4 °F - 28.4 °F 26% 30.12 in - Variable 2.3 mph - N/A   Clear
10:00 AM 69.8 °F - 24.8 °F 18% 30.09 in - WNW 4.6 mph - N/A   Clear
11:00 AM 73.4 °F - 26.6 °F 18% 30.09 in - WSW 4.6 mph - N/A   Clear
12:00 PM 80.6 °F - 24.8 °F 13% 30.06 in - WNW 5.8 mph - N/A   Clear
1:00 PM 82.4 °F - 24.8 °F 12% 30.04 in - WNW 12.7 mph - N/A   Clear
2:00 PM 84.2 °F - 24.8 °F 11% 30.01 in - West 12.7 mph 25.3 mph N/A   Clear
3:00 PM 84.2 °F - 24.8 °F 11% 30.01 in - West 12.7 mph - N/A   Clear
4:00 PM 84.2 °F - 24.8 °F 11% 29.98 in - WNW 10.4 mph - N/A   Clear
5:00 PM 82.4 °F - 24.8 °F 12% 30.01 in - West 6.9 mph - N/A   Clear
6:00 PM 73.4 °F - 24.8 °F 16% 30.01 in - WSW 5.8 mph - N/A   Clear
7:00 PM 66.2 °F - 26.6 °F 23% 30.04 in - SW 6.9 mph - N/A   Clear
8:00 PM 66.2 °F - 26.6 °F 23% 30.04 in - SW 6.9 mph - N/A   Clear
9:00 PM 60.8 °F - 26.6 °F 27% 30.06 in - Variable 2.3 mph - N/A   Clear
10:00 PM 57.2 °F - 28.4 °F 33% 30.06 in - North 3.5 mph - N/A   Clear
11:00 PM 57.2 °F - 28.4 °F 33% 30.06 in - NW 2.3 mph - N/A   Clear